logo tempoitalia

Diretta Meteo Dubrovnik-Cilipi, Croazialunedì 31 agosto ore 07:00

Mappa
Sereno 26 °C Sereno 24 Ore: T.min 25 T.max 30
Ponente Nord Km/h 5.5 Punto di rugiada: 14 °C Umidità: 47% Visibilità: 10 Km
Il sole sorge alle: 06:10 Il sole tramonta alle: 19:23
31 Agosto 2026 07:00 tempo osservato: Sereno Sereno 26 47 1014 vento: Nord N 5.5
31 Agosto 2026 06:30 tempo osservato: Sereno Sereno 25 50 1014 vento: Nord N 5.5
31 Agosto 2026 06:00 tempo osservato: Sereno Sereno 26 47 1014 vento: Nord N 5.5
31 Agosto 2026 05:30 tempo osservato: Sereno Sereno 27 44 1014 vento: Nord E 11.1
31 Agosto 2026 05:00 tempo osservato: Sereno Sereno 25 57 1014 vento: Nord E 13
31 Agosto 2026 04:30 tempo osservato: Sereno Sereno 25 61 1014 vento: Nord SE 11.1
31 Agosto 2026 04:00 tempo osservato: Sereno Sereno 25 61 1014 vento: Nord E/SE 13
31 Agosto 2026 03:30 tempo osservato: Sereno Sereno 25 65 1014 vento: Nord E/SE 7.4
31 Agosto 2026 03:00 tempo osservato: Sereno Sereno 26 47 1014 vento: Nord E 7.4
31 Agosto 2026 02:30 tempo osservato: Sereno Sereno 26 50 1014 vento: Nord E/NE 9.3
31 Agosto 2026 02:00 tempo osservato: Sereno Sereno 27 50 1014 vento: Nord E 13
31 Agosto 2026 01:30 tempo osservato: Sereno Sereno 26 61 1014 vento: Nord E 14.8
31 Agosto 2026 01:00 tempo osservato: Sereno Sereno 26 61 1014 vento: Nord E 11.1
31 Agosto 2026 00:30 tempo osservato: Sereno Sereno 25 69 1014 vento: Nord E 7.4
31 Agosto 2026 00:00 tempo osservato: Sereno Sereno 27 65 1014 vento: Nord N 5.5
30 Agosto 2026 23:30 tempo osservato: Sereno Sereno 27 65 1014 vento: Nord E 9.3
30 Agosto 2026 23:00 tempo osservato: Sereno Sereno 26 73 1014 vento: Nord E 7.4
30 Agosto 2026 22:30 tempo osservato: Sereno Sereno 27 74 1014 vento: Nord N 3.7
30 Agosto 2026 22:00 tempo osservato: Sereno Sereno 27 69 1014 vento: Nord N 3.7
30 Agosto 2026 21:30 tempo osservato: Sereno Sereno 28 61 1014 vento: Nord E/SE 7.4
30 Agosto 2026 21:00 tempo osservato: Sereno Sereno 28 61 1013 vento: Nord E 7.4
30 Agosto 2026 20:30 tempo osservato: Sereno Sereno 29 62 1013 vento: Nord E 11.1
30 Agosto 2026 20:00 tempo osservato: Sereno Sereno 28 78 1013 vento: Nord N 5.5
30 Agosto 2026 19:30 tempo osservato: Sereno Sereno 28 78 1013 vento: Nord N 1.8
30 Agosto 2026 19:00 tempo osservato: Sereno Sereno 29 74 1013 vento: Nord N 5.5
30 Agosto 2026 18:30 tempo osservato: Sereno Sereno 30 66 1013 vento: Nord N 3.7
30 Agosto 2026 18:00 tempo osservato: Sereno Sereno 30 62 1013 vento: Nord N 3.7
30 Agosto 2026 17:30 tempo osservato: Sereno Sereno 30 66 1013 vento: Nord N 3.7
30 Agosto 2026 17:00 tempo osservato: Sereno Sereno 29 70 1014 vento: Nord S 7.4
30 Agosto 2026 16:30 tempo osservato: Sereno Sereno 29 70 1014 vento: Nord S/SO 9.3
30 Agosto 2026 16:00 tempo osservato: Sereno Sereno 30 66 1014 vento: Nord S 13
30 Agosto 2026 15:30 tempo osservato: Sereno Sereno 30 66 1014 vento: Nord S 18.5
30 Agosto 2026 15:00 tempo osservato: Sereno Sereno 29 74 1014 vento: Nord S 18.5
30 Agosto 2026 14:30 tempo osservato: Sereno Sereno 30 70 1015 vento: Nord S 18.5
30 Agosto 2026 14:00 tempo osservato: Sereno Sereno 30 70 1015 vento: Nord S 22.2
30 Agosto 2026 13:30 tempo osservato: Sereno Sereno 30 70 1015 vento: Nord S 24
30 Agosto 2026 13:00 tempo osservato: Sereno Sereno 30 70 1015 vento: Nord S 24
30 Agosto 2026 12:30 tempo osservato: Poco Nuvoloso Poco Nuvoloso 30 70 1015 vento: Nord S 24
30 Agosto 2026 12:00 tempo osservato: Poco Nuvoloso Poco Nuvoloso 29 74 1016 vento: Nord S/SE 24
30 Agosto 2026 11:30 tempo osservato: Sereno Sereno 30 70 1016 vento: Nord S 22.2
30 Agosto 2026 11:00 tempo osservato: Sereno Sereno 29 74 1016 vento: Nord S 22.2
30 Agosto 2026 10:30 tempo osservato: Sereno Sereno 29 70 1015 vento: Nord S 18.5
30 Agosto 2026 10:00 tempo osservato: Sereno Sereno 30 58 1015 vento: Nord SE 9.3
30 Agosto 2026 09:30 tempo osservato: Sereno Sereno 29 58 1015 vento: Nord E/SE 9.3
30 Agosto 2026 09:00 tempo osservato: Sereno Sereno 29 58 1015 vento: Nord E/SE 11.1
30 Agosto 2026 08:30 tempo osservato: Sereno Sereno 28 65 1015 vento: Nord E 9.3
30 Agosto 2026 08:00 tempo osservato: Sereno Sereno 26 61 1015 vento: Nord E/SE 13